Time,TemperatureF,DewpointF,PressureIn,WindDirection,WindDirectionDegrees,WindSpeedMPH,WindSpeedGustMPH,Humidity,HourlyPrecipIn,Conditions,Clouds,dailyrainin,SolarRadiationWatts/m^2,SoftwareType,DateUTC
2013-04-11 00:01:00,34.6,28.1,29.96,ENE,73,13.4,18.4,77,0.00,RA,,0.00,0.0,WeatherDisplay:10.37,2013-04-11 05:01:00,
2013-04-11 00:06:00,34.6,28.1,29.96,NE,55,7.4,17.3,77,0.00,RA,,0.00,0.0,WeatherDisplay:10.37,2013-04-11 05:06:00,
2013-04-11 00:11:00,34.4,27.9,29.96,ENE,61,7.7,15.6,77,0.00,BKN,,0.00,0.0,WeatherDisplay:10.37,2013-04-11 05:11:00,
2013-04-11 00:16:00,34.4,27.9,29.96,ENE,76,4.4,8.4,77,0.00,BKN,,0.00,0.0,WeatherDisplay:10.37,2013-04-11 05:16:00,
2013-04-11 00:21:00,34.4,27.9,29.96,ENE,71,6.4,8.4,77,0.00,BKN,,0.00,0.0,WeatherDisplay:10.37,2013-04-11 05:21:00,
2013-04-11 00:26:00,34.3,27.8,29.96,ENE,66,11.6,16.8,77,0.00,OVC,,0.00,0.0,WeatherDisplay:10.37,2013-04-11 05:26:00,
2013-04-11 00:31:00,34.3,27.5,29.94,East,92,10.1,15.0,76,0.00,OVC,,0.00,0.0,WeatherDisplay:10.37,2013-04-11 05:31:00,
2013-04-11 00:36:00,34.3,27.8,29.94,ENE,57,6.8,11.5,77,0.00,OVC,,0.00,0.0,WeatherDisplay:10.37,2013-04-11 05:36:00,
2013-04-11 00:41:00,34.3,27.8,29.94,East,96,18.1,25.3,77,0.00,BKN,,0.00,0.0,WeatherDisplay:10.37,2013-04-11 05:41:00,
2013-04-11 00:46:00,34.1,27.6,29.91,ENE,69,11.7,20.7,77,0.00,BKN,,0.00,0.0,WeatherDisplay:10.37,2013-04-11 05:46:00,
2013-04-11 00:51:00,34.0,27.5,29.91,East,82,8.5,16.1,77,0.00,BKN,,0.00,0.0,WeatherDisplay:10.37,2013-04-11 05:51:00,
2013-04-11 00:56:00,34.0,27.5,29.91,East,81,15.3,21.6,77,0.00,BKN,,0.00,0.0,WeatherDisplay:10.37,2013-04-11 05:56:00,
2013-04-11 01:01:00,33.8,27.7,29.86,East,84,9.4,18.0,78,0.00,BKN,,0.00,0.0,WeatherDisplay:10.37,2013-04-11 06:01:00,
2013-04-11 01:06:00,33.7,27.6,29.86,ENE,61,14.2,18.4,78,0.00,OVC,,0.00,0.0,WeatherDisplay:10.37,2013-04-11 06:06:00,
2013-04-11 01:11:00,33.4,27.6,29.86,ESE,118,21.7,26.5,79,0.00,OVC,,0.00,0.0,WeatherDisplay:10.37,2013-04-11 06:11:00,
2013-04-11 01:16:00,33.4,27.6,29.72,ENE,70,20.1,24.2,79,0.00,OVC,,0.00,0.0,WeatherDisplay:10.37,2013-04-11 06:16:00,
2013-04-11 01:21:00,33.5,27.7,29.72,East,79,23.0,30.0,79,0.00,OVC,,0.00,0.0,WeatherDisplay:10.37,2013-04-11 06:21:00,
2013-04-11 01:26:00,33.5,27.4,29.72,ENE,67,16.7,26.5,78,0.00,OVC,,0.00,0.0,WeatherDisplay:10.37,2013-04-11 06:26:00,
2013-04-11 01:31:00,33.7,27.6,29.79,NE,52,19.5,33.6,78,0.00,OVC,,0.00,0.0,WeatherDisplay:10.37,2013-04-11 06:31:00,
2013-04-11 01:36:00,34.0,27.9,29.79,SSE,153,8.5,10.8,78,0.00,OVC,,0.00,0.0,WeatherDisplay:10.37,2013-04-11 06:36:00,
2013-04-11 01:41:00,34.3,27.8,29.79,ESE,115,6.5,16.1,77,0.00,OVC,,0.00,0.0,WeatherDisplay:10.37,2013-04-11 06:41:00,
2013-04-11 01:46:00,34.3,27.8,29.88,ENE,66,10.0,15.6,77,0.00,OVC,,0.00,0.0,WeatherDisplay:10.37,2013-04-11 06:46:00,
2013-04-11 01:51:00,34.4,27.9,29.88,East,99,9.5,24.2,77,0.00,OVC,,0.00,0.0,WeatherDisplay:10.37,2013-04-11 06:51:00,
2013-04-11 01:56:00,34.4,27.9,29.88,East,91,7.7,9.6,77,0.00,OVC,,0.00,0.0,WeatherDisplay:10.37,2013-04-11 06:56:00,
2013-04-11 02:01:00,34.4,27.9,29.90,ENE,77,0.0,0.0,77,0.00,OVC,,0.00,0.0,WeatherDisplay:10.37,2013-04-11 07:01:00,
2013-04-11 02:06:00,34.4,27.9,29.90,East,80,0.2,3.6,77,0.00,OVC,,0.00,0.0,WeatherDisplay:10.37,2013-04-11 07:06:00,
2013-04-11 02:11:00,34.6,28.1,29.90,East,96,1.0,6.9,77,0.00,OVC,,0.00,0.0,WeatherDisplay:10.37,2013-04-11 07:11:00,
2013-04-11 02:16:00,34.7,28.2,29.91,SE,134,5.2,7.2,77,0.00,OVC,,0.00,0.0,WeatherDisplay:10.37,2013-04-11 07:16:00,
2013-04-11 02:21:00,34.7,27.9,29.91,ENE,72,5.7,11.5,76,0.00,OVC,,0.00,0.0,WeatherDisplay:10.37,2013-04-11 07:21:00,
2013-04-11 02:26:00,34.7,27.9,29.91,ENE,60,6.5,9.6,76,0.00,OVC,,0.00,0.0,WeatherDisplay:10.37,2013-04-11 07:26:00,
2013-04-11 02:31:00,34.7,28.2,29.91,NE,45,2.9,4.8,77,0.00,OVC,,0.00,0.0,WeatherDisplay:10.37,2013-04-11 07:31:00,
2013-04-11 02:36:00,34.6,28.1,29.91,East,90,3.6,8.4,77,0.00,OVC,,0.00,0.0,WeatherDisplay:10.37,2013-04-11 07:36:00,
2013-04-11 02:41:00,34.4,27.9,29.91,NE,40,7.6,12.0,77,0.00,OVC,,0.00,0.0,WeatherDisplay:10.37,2013-04-11 07:41:00,
2013-04-11 02:46:00,34.3,27.8,29.90,ENE,70,3.0,8.1,77,0.00,OVC,,0.00,0.0,WeatherDisplay:10.37,2013-04-11 07:46:00,
2013-04-11 02:51:00,34.3,27.8,29.90,ENE,59,5.8,8.1,77,0.00,OVC,,0.00,0.0,WeatherDisplay:10.37,2013-04-11 07:51:00,
2013-04-11 02:56:00,34.1,27.6,29.90,East,80,3.7,5.8,77,0.00,OVC,,0.00,0.0,WeatherDisplay:10.37,2013-04-11 07:56:00,
2013-04-11 03:01:00,34.0,27.9,29.88,NE,53,9.6,12.0,78,0.00,OVC,,0.00,0.0,WeatherDisplay:10.37,2013-04-11 08:01:00,
2013-04-11 03:06:00,34.0,27.9,29.88,NE,52,8.7,14.4,78,0.00,OVC,,0.00,0.0,WeatherDisplay:10.37,2013-04-11 08:06:00,
2013-04-11 03:11:00,33.8,27.7,29.88,NE,49,6.7,7.2,78,0.00,OVC,,0.00,0.0,WeatherDisplay:10.37,2013-04-11 08:11:00,
2013-04-11 03:16:00,33.7,27.6,29.88,NE,54,9.9,14.4,78,0.00,OVC,,0.00,0.0,WeatherDisplay:10.37,2013-04-11 08:16:00,
2013-04-11 03:21:00,33.7,27.9,29.88,ENE,69,3.6,8.4,79,0.00,OVC,,0.00,0.0,WeatherDisplay:10.37,2013-04-11 08:21:00,
2013-04-11 03:26:00,33.5,27.7,29.88,NE,46,7.6,12.0,79,0.00,OVC,,0.00,0.0,WeatherDisplay:10.37,2013-04-11 08:26:00,
2013-04-11 03:31:00,33.4,27.6,29.86,NE,53,6.5,8.4,79,0.00,OVC,,0.00,0.0,WeatherDisplay:10.37,2013-04-11 08:31:00,
2013-04-11 03:36:00,33.2,27.4,29.86,NNE,30,6.1,8.1,79,0.00,OVC,,0.00,0.0,WeatherDisplay:10.37,2013-04-11 08:36:00,
2013-04-11 03:41:00,33.1,27.6,29.86,ENE,65,8.3,13.2,80,0.00,OVC,,0.00,0.0,WeatherDisplay:10.37,2013-04-11 08:41:00,
2013-04-11 03:46:00,33.1,27.6,29.85,NE,53,9.0,14.4,80,0.00,BKN,,0.00,0.0,WeatherDisplay:10.37,2013-04-11 08:46:00,
2013-04-11 03:51:00,33.1,27.6,29.85,NE,45,4.0,9.2,80,0.00,BKN,,0.00,0.0,WeatherDisplay:10.37,2013-04-11 08:51:00,
2013-04-11 03:56:00,32.9,27.4,29.85,NNE,13,7.4,8.4,80,0.00,BKN,,0.00,0.0,WeatherDisplay:10.37,2013-04-11 08:56:00,
2013-04-11 04:01:00,32.9,27.4,29.85,NE,51,7.0,12.0,80,0.00,BKN,,0.00,0.0,WeatherDisplay:10.37,2013-04-11 09:01:00,
2013-04-11 04:06:00,32.9,27.4,29.85,NE,50,7.4,12.0,80,0.00,BKN,,0.00,0.0,WeatherDisplay:10.37,2013-04-11 09:06:00,
2013-04-11 04:11:00,32.9,27.4,29.85,NE,54,6.5,12.0,80,0.00,BKN,,0.00,0.0,WeatherDisplay:10.37,2013-04-11 09:11:00,
2013-04-11 04:16:00,32.9,27.4,29.83,East,93,8.4,16.1,80,0.00,BKN,,0.00,0.0,WeatherDisplay:10.37,2013-04-11 09:16:00,
2013-04-11 04:21:00,32.8,27.6,29.83,ENE,62,7.3,9.6,81,0.00,OVC,,0.00,0.0,WeatherDisplay:10.37,2013-04-11 09:21:00,
2013-04-11 04:26:00,32.8,27.9,29.83,NE,47,5.9,9.6,82,0.00,OVC,,0.00,0.0,WeatherDisplay:10.37,2013-04-11 09:26:00,
2013-04-11 04:31:00,32.8,27.9,29.83,ENE,63,7.3,11.5,82,0.00,OVC,,0.00,0.0,WeatherDisplay:10.37,2013-04-11 09:31:00,
2013-04-11 04:36:00,32.8,27.9,29.83,East,82,3.9,14.4,82,0.00,OVC,,0.00,0.0,WeatherDisplay:10.37,2013-04-11 09:36:00,
2013-04-11 04:41:00,32.8,27.9,29.83,ENE,65,8.4,16.1,82,0.00,OVC,,0.00,0.0,WeatherDisplay:10.37,2013-04-11 09:41:00,
2013-04-11 04:46:00,32.8,27.9,29.83,East,88,5.4,11.5,82,0.00,OVC,,0.00,0.0,WeatherDisplay:10.37,2013-04-11 09:46:00,
2013-04-11 04:51:00,32.9,28.0,29.83,NE,41,10.6,17.3,82,0.00,OVC,,0.00,0.0,WeatherDisplay:10.37,2013-04-11 09:51:00,
2013-04-11 04:56:00,32.9,28.0,29.83,North,5,9.0,16.1,82,0.00,OVC,,0.00,0.0,WeatherDisplay:10.37,2013-04-11 09:56:00,
2013-04-11 05:01:00,32.8,28.2,29.82,ENE,74,6.0,17.3,83,0.00,OVC,,0.00,0.0,WeatherDisplay:10.37,2013-04-11 10:01:00,
2013-04-11 05:06:00,32.7,28.4,29.82,ENE,71,8.1,13.2,84,0.00,-DZ,,0.00,0.0,WeatherDisplay:10.37,2013-04-11 10:06:00,
2013-04-11 05:11:00,32.7,28.7,29.82,East,86,7.2,14.4,85,0.00,-DZ,,0.00,0.0,WeatherDisplay:10.37,2013-04-11 10:11:00,
2013-04-11 05:16:00,32.7,29.0,29.81,ENE,75,15.2,23.0,86,0.00,-DZ,,0.00,0.0,WeatherDisplay:10.37,2013-04-11 10:16:00,
2013-04-11 05:21:00,32.7,29.0,29.81,ESE,113,11.5,16.8,86,0.00,-DZ,,0.00,0.0,WeatherDisplay:10.37,2013-04-11 10:21:00,
2013-04-11 05:26:00,32.7,29.0,29.81,ENE,65,12.8,18.0,86,0.00,SCT,,0.00,0.0,WeatherDisplay:10.37,2013-04-11 10:26:00,
2013-04-11 05:31:00,32.7,29.3,29.80,NE,53,13.2,18.4,87,0.00,SCT,,0.00,0.0,WeatherDisplay:10.37,2013-04-11 10:31:00,
2013-04-11 05:36:00,32.7,29.3,29.80,ENE,68,10.1,15.0,87,0.00,SCT,,0.00,0.0,WeatherDisplay:10.37,2013-04-11 10:36:00,
2013-04-11 05:41:00,32.7,29.3,29.80,ESE,104,11.1,16.8,87,0.00,BKN,,0.00,0.0,WeatherDisplay:10.37,2013-04-11 10:41:00,
2013-04-11 05:46:00,32.7,29.3,29.80,NE,54,12.3,16.8,87,0.00,BKN,,0.00,0.0,WeatherDisplay:10.37,2013-04-11 10:46:00,
2013-04-11 05:51:00,32.7,29.3,29.80,East,82,8.2,12.0,87,0.00,BKN,,0.00,0.0,WeatherDisplay:10.37,2013-04-11 10:51:00,
2013-04-11 05:56:00,32.7,29.3,29.80,East,82,7.4,15.6,87,0.00,BKN,,0.00,0.0,WeatherDisplay:10.37,2013-04-11 10:56:00,
2013-04-11 06:01:00,32.7,29.5,29.78,ENE,69,10.5,20.7,88,0.00,OVC,,0.00,0.0,WeatherDisplay:10.37,2013-04-11 11:01:00,
2013-04-11 06:06:00,32.5,29.6,29.78,ENE,71,11.2,17.3,89,0.00,OVC,,0.00,0.0,WeatherDisplay:10.37,2013-04-11 11:06:00,
2013-04-11 06:11:00,32.5,29.6,29.78,East,96,10.1,15.0,89,0.00,OVC,,0.00,0.0,WeatherDisplay:10.37,2013-04-11 11:11:00,
2013-04-11 06:16:00,32.5,29.9,29.78,ENE,69,7.7,15.0,90,0.01,RA,,0.01,0.0,WeatherDisplay:10.37,2013-04-11 11:16:00,
2013-04-11 06:21:00,32.5,29.9,29.78,NE,44,7.1,9.6,90,0.01,RA,,0.01,0.0,WeatherDisplay:10.37,2013-04-11 11:21:00,
2013-04-11 06:26:00,32.5,30.2,29.78,East,79,8.0,18.4,91,0.01,OVC,,0.01,0.0,WeatherDisplay:10.37,2013-04-11 11:26:00,
2013-04-11 06:31:00,32.5,30.2,29.78,ENE,57,8.4,12.0,91,0.01,OVC,,0.01,0.0,WeatherDisplay:10.37,2013-04-11 11:31:00,
2013-04-11 06:36:00,32.5,30.2,29.78,ENE,71,5.7,11.5,91,0.01,OVC,,0.01,0.0,WeatherDisplay:10.37,2013-04-11 11:36:00,
2013-04-11 06:41:00,32.5,30.2,29.78,East,90,5.5,8.4,91,0.01,BKN,,0.01,0.0,WeatherDisplay:10.37,2013-04-11 11:41:00,
2013-04-11 06:47:00,32.5,30.4,29.77,ENE,65,12.0,20.0,92,0.01,BKN,,0.01,0.0,WeatherDisplay:10.37,2013-04-11 11:47:00,
2013-04-11 06:52:00,32.7,30.4,29.77,ENE,63,12.0,22.0,91,0.01,BKN,,0.01,0.0,WeatherDisplay:10.37,2013-04-11 11:52:00,
2013-04-11 06:57:00,32.7,30.6,29.77,ENE,75,5.0,15.0,92,0.01,BKN,,0.01,0.0,WeatherDisplay:10.37,2013-04-11 11:57:00,
2013-04-11 07:02:00,32.7,30.6,29.77,ESE,108,8.2,13.2,92,0.01,BKN,,0.01,5.0,WeatherDisplay:10.37,2013-04-11 12:02:00,
2013-04-11 07:07:00,32.7,30.6,29.77,East,93,5.4,10.4,92,0.01,BKN,,0.01,5.0,WeatherDisplay:10.37,2013-04-11 12:07:00,
2013-04-11 07:12:00,32.8,30.7,29.77,East,92,7.5,12.7,92,0.00,BKN,,0.01,7.0,WeatherDisplay:10.37,2013-04-11 12:12:00,
2013-04-11 07:17:00,32.8,30.7,29.77,ESE,102,8.3,17.3,92,0.01,RA,,0.02,11.0,WeatherDisplay:10.37,2013-04-11 12:17:00,
2013-04-11 07:22:00,32.8,31.0,29.77,East,95,9.8,15.6,93,0.01,RA,,0.02,11.0,WeatherDisplay:10.37,2013-04-11 12:22:00,
2013-04-11 07:27:00,32.9,31.1,29.77,NE,56,5.2,8.4,93,0.01,OVC,,0.02,9.0,WeatherDisplay:10.37,2013-04-11 12:27:00,
2013-04-11 07:32:00,32.9,31.1,29.78,East,86,5.5,12.7,93,0.01,OVC,,0.02,7.0,WeatherDisplay:10.37,2013-04-11 12:32:00,
2013-04-11 07:37:00,32.9,31.1,29.78,East,83,4.7,9.6,93,0.01,OVC,,0.02,7.0,WeatherDisplay:10.37,2013-04-11 12:37:00,
2013-04-11 07:42:00,33.1,31.3,29.78,ESE,114,13.1,18.0,93,0.01,OVC,,0.02,12.0,WeatherDisplay:10.37,2013-04-11 12:42:00,
2013-04-11 07:47:00,33.1,31.3,29.78,SE,136,14.6,17.3,93,0.02,RA,,0.03,14.0,WeatherDisplay:10.37,2013-04-11 12:47:00,
2013-04-11 07:52:00,33.2,31.4,29.78,East,86,4.1,6.0,93,0.02,RA,,0.03,16.0,WeatherDisplay:10.37,2013-04-11 12:52:00,
2013-04-11 07:57:00,33.2,31.7,29.78,East,82,5.2,13.2,94,0.03,RA,,0.05,11.0,WeatherDisplay:10.37,2013-04-11 12:57:00,
2013-04-11 08:02:00,33.2,31.7,29.80,East,91,11.8,18.4,94,0.05,RA,,0.06,21.0,WeatherDisplay:10.37,2013-04-11 13:02:00,
2013-04-11 08:07:00,33.2,31.7,29.80,NE,54,7.8,10.8,94,0.06,RA,,0.07,35.0,WeatherDisplay:10.37,2013-04-11 13:07:00,
2013-04-11 08:12:00,33.2,31.7,29.80,East,94,4.7,10.8,94,0.07,RA,,0.08,16.0,WeatherDisplay:10.37,2013-04-11 13:12:00,
2013-04-11 08:17:00,33.4,31.9,29.80,ESE,112,6.0,10.8,94,0.06,RA,,0.08,23.0,WeatherDisplay:10.37,2013-04-11 13:17:00,
2013-04-11 08:22:00,33.4,31.9,29.80,ENE,65,4.2,8.1,94,0.07,RA,,0.09,26.0,WeatherDisplay:10.37,2013-04-11 13:22:00,
2013-04-11 08:27:00,33.5,32.0,29.80,ENE,77,10.2,14.4,94,0.08,RA,,0.10,44.0,WeatherDisplay:10.37,2013-04-11 13:27:00,
2013-04-11 08:32:00,33.5,32.0,29.80,East,80,6.3,13.2,94,0.08,RA,,0.10,69.0,WeatherDisplay:10.37,2013-04-11 13:32:00,
2013-04-11 08:37:00,33.7,32.4,29.80,ENE,71,5.3,10.8,95,0.09,RA,,0.12,77.0,WeatherDisplay:10.37,2013-04-11 13:37:00,
2013-04-11 08:42:00,33.7,32.4,29.80,ENE,67,10.1,18.4,95,0.09,RA,,0.12,81.0,WeatherDisplay:10.37,2013-04-11 13:42:00,
2013-04-11 08:47:00,33.8,32.5,29.78,ENE,62,9.4,19.6,95,0.08,OVC,,0.12,60.0,WeatherDisplay:10.37,2013-04-11 13:47:00,
2013-04-11 08:52:00,33.8,32.5,29.78,ENE,61,8.1,16.1,95,0.08,RA,,0.13,81.0,WeatherDisplay:10.37,2013-04-11 13:52:00,
2013-04-11 08:57:00,33.8,32.5,29.78,ENE,71,12.0,16.1,95,0.09,RA,,0.14,79.0,WeatherDisplay:10.37,2013-04-11 13:57:00,
2013-04-11 09:02:00,33.8,32.5,29.76,ENE,66,12.0,23.0,95,0.08,RA,,0.14,69.0,WeatherDisplay:10.37,2013-04-11 14:02:00,
2013-04-11 09:07:00,34.0,32.7,29.76,NE,46,3.3,16.1,95,0.07,RA,,0.14,30.0,WeatherDisplay:10.37,2013-04-11 14:07:00,
2013-04-11 09:12:00,33.8,32.5,29.76,ENE,69,6.3,8.4,95,0.07,RA,,0.15,39.0,WeatherDisplay:10.37,2013-04-11 14:12:00,
2013-04-11 09:17:00,34.0,32.7,29.78,East,87,6.1,15.0,95,0.08,RA,,0.16,62.0,WeatherDisplay:10.37,2013-04-11 14:17:00,
2013-04-11 09:22:00,34.0,32.7,29.78,ENE,74,11.7,16.8,95,0.08,RA,,0.17,95.0,WeatherDisplay:10.37,2013-04-11 14:22:00,
2013-04-11 09:27:00,34.1,32.8,29.78,ENE,67,9.7,16.1,95,0.07,RA,,0.17,91.0,WeatherDisplay:10.37,2013-04-11 14:27:00,
2013-04-11 09:33:00,34.1,32.8,29.75,NE,51,9.1,15.0,95,0.07,OVC,,0.17,79.0,WeatherDisplay:10.37,2013-04-11 14:33:00,
2013-04-11 09:38:00,34.1,32.8,29.75,ENE,76,5.0,8.4,95,0.06,OVC,,0.17,60.0,WeatherDisplay:10.37,2013-04-11 14:38:00,
2013-04-11 09:43:00,34.1,32.8,29.75,East,97,2.1,8.1,95,0.06,OVC,,0.17,47.0,WeatherDisplay:10.37,2013-04-11 14:43:00,
2013-04-11 09:48:00,34.1,32.8,29.78,ENE,59,3.5,9.2,95,0.06,OVC,,0.17,44.0,WeatherDisplay:10.37,2013-04-11 14:48:00,
2013-04-11 09:53:00,34.1,32.8,29.78,ESE,109,7.6,18.4,95,0.05,OVC,,0.17,40.0,WeatherDisplay:10.37,2013-04-11 14:53:00,
2013-04-11 09:58:00,34.1,32.8,29.78,East,99,1.1,6.0,95,0.03,OVC,,0.17,53.0,WeatherDisplay:10.37,2013-04-11 14:58:00,
2013-04-11 10:03:00,34.3,33.0,29.78,ENE,77,10.4,18.0,95,0.03,-DZ,,0.17,56.0,WeatherDisplay:10.37,2013-04-11 15:03:00,
2013-04-11 10:08:00,34.3,33.0,29.78,NE,51,7.9,10.8,95,0.03,-DZ,,0.17,49.0,WeatherDisplay:10.37,2013-04-11 15:08:00,
2013-04-11 10:13:00,34.3,32.8,29.78,East,86,6.4,9.6,94,0.02,-DZ,,0.17,39.0,WeatherDisplay:10.37,2013-04-11 15:13:00,
2013-04-11 10:18:00,34.3,32.8,29.76,ENE,58,8.1,9.6,94,0.01,-DZ,,0.17,42.0,WeatherDisplay:10.37,2013-04-11 15:18:00,
2013-04-11 10:23:00,34.3,32.8,29.76,ESE,113,16.8,20.7,94,0.00,-DZ,,0.17,62.0,WeatherDisplay:10.37,2013-04-11 15:23:00,
2013-04-11 10:28:00,34.3,32.8,29.76,ENE,59,11.5,21.9,94,0.00,-DZ,,0.17,70.0,WeatherDisplay:10.37,2013-04-11 15:28:00,
2013-04-11 10:33:00,34.4,32.9,29.77,ENE,67,4.2,9.6,94,0.00,-DZ,,0.17,74.0,WeatherDisplay:10.37,2013-04-11 15:33:00,
2013-04-11 10:38:00,34.4,32.9,29.77,ENE,65,13.1,20.7,94,0.00,-DZ,,0.17,113.0,WeatherDisplay:10.37,2013-04-11 15:38:00,
2013-04-11 10:43:00,34.6,33.1,29.77,East,86,10.4,16.1,94,0.01,RA,,0.19,111.0,WeatherDisplay:10.37,2013-04-11 15:43:00,
2013-04-11 10:48:00,34.6,33.1,29.77,ESE,111,10.2,15.6,94,0.01,RA,,0.19,127.0,WeatherDisplay:10.37,2013-04-11 15:48:00,
2013-04-11 10:53:00,34.7,33.2,29.77,ENE,78,7.6,12.0,94,0.01,OVC,,0.19,109.0,WeatherDisplay:10.37,2013-04-11 15:53:00,
2013-04-11 10:58:00,34.7,33.2,29.77,East,100,9.3,15.6,94,0.01,OVC,,0.19,72.0,WeatherDisplay:10.37,2013-04-11 15:58:00,
2013-04-11 11:03:00,34.7,33.2,29.78,ENE,76,6.2,13.2,94,0.01,-RA,,0.19,72.0,WeatherDisplay:10.37,2013-04-11 16:03:00,
2013-04-11 11:08:00,34.6,33.1,29.78,NE,44,13.3,16.1,94,0.01,-RA,,0.19,90.0,WeatherDisplay:10.37,2013-04-11 16:08:00,
2013-04-11 11:13:00,34.7,33.2,29.78,ENE,63,2.1,6.9,94,0.01,-RA,,0.19,72.0,WeatherDisplay:10.37,2013-04-11 16:13:00,
2013-04-11 11:18:00,34.7,33.2,29.78,ENE,75,9.5,20.7,94,0.01,-RA,,0.19,81.0,WeatherDisplay:10.37,2013-04-11 16:18:00,
2013-04-11 11:23:00,34.6,33.1,29.78,East,85,8.7,16.1,94,0.01,OVC,,0.19,84.0,WeatherDisplay:10.37,2013-04-11 16:23:00,
2013-04-11 11:28:00,34.6,33.3,29.78,East,86,11.4,16.1,95,0.01,OVC,,0.19,114.0,WeatherDisplay:10.37,2013-04-11 16:28:00,
2013-04-11 11:33:00,34.6,33.3,29.77,ENE,61,11.4,18.4,95,0.01,OVC,,0.19,95.0,WeatherDisplay:10.37,2013-04-11 16:33:00,
2013-04-11 11:38:00,34.7,33.2,29.77,NE,53,13.6,21.9,94,0.01,OVC,,0.19,114.0,WeatherDisplay:10.37,2013-04-11 16:38:00,
2013-04-11 11:43:00,34.7,33.2,29.77,NNE,23,10.4,20.7,94,0.00,OVC,,0.19,156.0,WeatherDisplay:10.37,2013-04-11 16:43:00,
2013-04-11 11:48:00,34.9,33.6,29.75,ENE,73,1.7,6.9,95,0.00,OVC,,0.19,111.0,WeatherDisplay:10.37,2013-04-11 16:48:00,
2013-04-11 11:53:00,35.0,33.4,29.75,East,92,8.7,19.6,94,0.00,OVC,,0.19,156.0,WeatherDisplay:10.37,2013-04-11 16:53:00,
2013-04-11 11:58:00,35.0,33.4,29.75,ENE,77,15.3,24.2,94,0.00,OVC,,0.19,141.0,WeatherDisplay:10.37,2013-04-11 16:58:00,
2013-04-11 12:03:00,35.0,33.4,29.75,ESE,116,10.8,16.8,94,0.00,OVC,,0.20,130.0,WeatherDisplay:10.37,2013-04-11 17:03:00,
2013-04-11 12:08:00,35.2,33.6,29.75,NE,45,8.2,13.2,94,0.01,RA,,0.20,128.0,WeatherDisplay:10.37,2013-04-11 17:08:00,
2013-04-11 12:13:00,35.2,33.6,29.75,ESE,111,7.9,15.0,94,0.01,RA,,0.20,107.0,WeatherDisplay:10.37,2013-04-11 17:13:00,
2013-04-11 12:18:00,35.3,34.0,29.75,SE,126,6.7,16.8,95,0.01,OVC,,0.20,102.0,WeatherDisplay:10.37,2013-04-11 17:18:00,
2013-04-11 12:23:00,35.2,33.6,29.75,ENE,57,5.4,8.4,94,0.01,OVC,,0.20,109.0,WeatherDisplay:10.37,2013-04-11 17:23:00,
2013-04-11 12:28:00,35.2,33.6,29.75,East,101,4.3,9.6,94,0.01,OVC,,0.20,90.0,WeatherDisplay:10.37,2013-04-11 17:28:00,
2013-04-11 12:33:00,35.2,33.6,29.75,NE,50,8.1,10.8,94,0.01,OVC,,0.20,83.0,WeatherDisplay:10.37,2013-04-11 17:33:00,
2013-04-11 12:38:00,35.2,33.6,29.75,East,84,4.5,15.0,94,0.01,OVC,,0.20,113.0,WeatherDisplay:10.37,2013-04-11 17:38:00,
2013-04-11 12:43:00,35.2,33.9,29.75,ENE,69,5.6,12.0,95,0.01,OVC,,0.20,141.0,WeatherDisplay:10.37,2013-04-11 17:43:00,
2013-04-11 12:48:00,35.2,33.9,29.74,NE,46,8.4,12.0,95,0.01,OVC,,0.20,74.0,WeatherDisplay:10.37,2013-04-11 17:48:00,
2013-04-11 12:53:00,35.2,33.9,29.74,NE,54,9.3,17.3,95,0.01,OVC,,0.20,109.0,WeatherDisplay:10.37,2013-04-11 17:53:00,
2013-04-11 12:58:00,35.2,33.9,29.74,NNE,32,5.7,8.4,95,0.01,OVC,,0.20,139.0,WeatherDisplay:10.37,2013-04-11 17:58:00,
2013-04-11 13:03:00,35.2,33.9,29.73,ENE,64,5.7,10.8,95,0.01,-DZ,,0.20,98.0,WeatherDisplay:10.37,2013-04-11 18:03:00,
2013-04-11 13:08:00,35.3,34.0,29.73,ENE,70,8.4,13.2,95,0.00,-DZ,,0.20,97.0,WeatherDisplay:10.37,2013-04-11 18:08:00,
2013-04-11 13:13:00,35.2,33.9,29.73,ENE,63,9.6,17.3,95,0.00,-DZ,,0.20,100.0,WeatherDisplay:10.37,2013-04-11 18:13:00,
2013-04-11 13:18:00,35.2,33.9,29.73,ENE,63,7.1,9.6,95,0.00,-DZ,,0.20,125.0,WeatherDisplay:10.37,2013-04-11 18:18:00,
2013-04-11 13:23:00,35.5,34.2,29.73,ENE,75,6.1,10.8,95,0.00,OVC,,0.20,116.0,WeatherDisplay:10.37,2013-04-11 18:23:00,
2013-04-11 13:28:00,35.5,34.2,29.73,ENE,74,5.0,8.4,95,0.00,OVC,,0.20,113.0,WeatherDisplay:10.37,2013-04-11 18:28:00,
2013-04-11 13:33:00,35.5,34.2,29.74,NE,37,7.1,13.2,95,0.00,OVC,,0.20,84.0,WeatherDisplay:10.37,2013-04-11 18:33:00,
2013-04-11 13:38:00,35.5,34.2,29.74,ESE,102,2.7,6.0,95,0.00,OVC,,0.20,125.0,WeatherDisplay:10.37,2013-04-11 18:38:00,
2013-04-11 13:43:00,35.5,34.2,29.74,East,84,2.6,8.1,95,0.00,OVC,,0.20,113.0,WeatherDisplay:10.37,2013-04-11 18:43:00,
2013-04-11 13:48:00,35.5,34.2,29.74,NE,55,11.4,16.8,95,0.01,RA,,0.21,98.0,WeatherDisplay:10.37,2013-04-11 18:48:00,
2013-04-11 13:53:00,35.6,34.3,29.74,East,88,6.1,8.4,95,0.01,RA,,0.21,132.0,WeatherDisplay:10.37,2013-04-11 18:53:00,
2013-04-11 13:58:00,35.6,34.3,29.74,East,92,4.1,7.2,95,0.01,OVC,,0.21,127.0,WeatherDisplay:10.37,2013-04-11 18:58:00,
2013-04-11 14:03:00,35.8,34.5,29.72,ENE,69,4.4,10.8,95,0.01,OVC,,0.21,123.0,WeatherDisplay:10.37,2013-04-11 19:03:00,
2013-04-11 14:08:00,35.6,34.3,29.72,ENE,61,2.4,6.0,95,0.01,OVC,,0.21,105.0,WeatherDisplay:10.37,2013-04-11 19:08:00,
2013-04-11 14:13:00,35.6,34.3,29.72,East,88,11.9,14.4,95,0.01,OVC,,0.21,123.0,WeatherDisplay:10.37,2013-04-11 19:13:00,
2013-04-11 14:19:00,35.6,34.3,29.73,ENE,63,11.2,20.4,95,0.01,OVC,,0.21,144.0,WeatherDisplay:10.37,2013-04-11 19:19:00,
2013-04-11 14:24:00,35.6,34.3,29.73,ENE,77,8.8,15.0,95,0.01,OVC,,0.21,141.0,WeatherDisplay:10.37,2013-04-11 19:24:00,
2013-04-11 14:29:00,35.8,34.5,29.73,NE,37,8.8,18.4,95,0.01,OVC,,0.21,169.0,WeatherDisplay:10.37,2013-04-11 19:29:00,
2013-04-11 14:34:00,35.8,34.5,29.72,ENE,65,10.8,13.2,95,0.01,OVC,,0.21,142.0,WeatherDisplay:10.37,2013-04-11 19:34:00,
2013-04-11 14:39:00,35.9,34.6,29.72,ENE,67,11.2,17.3,95,0.01,OVC,,0.21,127.0,WeatherDisplay:10.37,2013-04-11 19:39:00,
2013-04-11 14:44:00,35.9,34.6,29.72,ENE,63,7.1,8.4,95,0.01,OVC,,0.21,123.0,WeatherDisplay:10.37,2013-04-11 19:44:00,
2013-04-11 14:49:00,35.9,34.9,29.70,ENE,63,7.4,14.4,96,0.00,OVC,,0.21,192.0,WeatherDisplay:10.37,2013-04-11 19:49:00,
2013-04-11 14:54:00,35.8,34.5,29.70,East,81,4.6,9.6,95,0.00,OVC,,0.21,142.0,WeatherDisplay:10.37,2013-04-11 19:54:00,
2013-04-11 14:59:00,35.9,34.9,29.70,ENE,70,10.3,16.1,96,0.00,OVC,,0.21,128.0,WeatherDisplay:10.37,2013-04-11 19:59:00,
2013-04-11 15:04:00,36.0,35.0,29.70,ENE,63,4.9,15.6,96,0.00,OVC,,0.21,121.0,WeatherDisplay:10.37,2013-04-11 20:04:00,
2013-04-11 15:09:00,35.9,34.6,29.70,ENE,61,13.2,19.2,95,0.00,OVC,,0.21,114.0,WeatherDisplay:10.37,2013-04-11 20:09:00,
2013-04-11 15:14:00,35.9,34.9,29.70,East,87,5.3,8.4,96,0.00,OVC,,0.21,100.0,WeatherDisplay:10.37,2013-04-11 20:14:00,
2013-04-11 15:19:00,35.8,34.5,29.71,ENE,67,5.6,13.2,95,0.00,OVC,,0.21,109.0,WeatherDisplay:10.37,2013-04-11 20:19:00,
2013-04-11 15:24:00,35.8,34.5,29.71,East,94,13.2,16.1,95,0.00,OVC,,0.21,113.0,WeatherDisplay:10.37,2013-04-11 20:24:00,
2013-04-11 15:29:00,35.8,34.5,29.71,NE,53,8.0,15.0,95,0.00,OVC,,0.21,123.0,WeatherDisplay:10.37,2013-04-11 20:29:00,
2013-04-11 15:34:00,35.8,34.5,29.70,ENE,68,2.8,8.4,95,0.00,OVC,,0.21,95.0,WeatherDisplay:10.37,2013-04-11 20:34:00,
2013-04-11 15:39:00,35.9,34.6,29.70,ENE,76,11.3,16.1,95,0.00,OVC,,0.21,111.0,WeatherDisplay:10.37,2013-04-11 20:39:00,
2013-04-11 15:44:00,35.9,34.6,29.70,ENE,74,4.0,17.3,95,0.00,OVC,,0.21,90.0,WeatherDisplay:10.37,2013-04-11 20:44:00,
2013-04-11 15:49:00,35.8,34.5,29.69,East,79,11.9,21.9,95,0.00,OVC,,0.21,102.0,WeatherDisplay:10.37,2013-04-11 20:49:00,
2013-04-11 15:54:00,35.6,34.3,29.69,East,90,13.5,16.8,95,0.00,OVC,,0.21,118.0,WeatherDisplay:10.37,2013-04-11 20:54:00,
2013-04-11 15:59:00,35.8,34.5,29.69,ENE,65,8.0,13.2,95,0.00,OVC,,0.21,114.0,WeatherDisplay:10.37,2013-04-11 20:59:00,
2013-04-11 16:04:00,35.9,34.6,29.70,ENE,58,5.0,16.1,95,0.00,-DZ,,0.21,123.0,WeatherDisplay:10.37,2013-04-11 21:04:00,
2013-04-11 16:09:00,35.9,34.6,29.70,ENE,66,6.8,16.8,95,0.00,-DZ,,0.21,107.0,WeatherDisplay:10.37,2013-04-11 21:09:00,
2013-04-11 16:14:00,35.9,34.6,29.69,NE,55,8.2,15.0,95,0.00,-DZ,,0.21,100.0,WeatherDisplay:10.37,2013-04-11 21:14:00,
2013-04-11 16:19:00,35.6,34.3,29.69,ESE,103,12.7,16.8,95,0.00,-DZ,,0.21,116.0,WeatherDisplay:10.37,2013-04-11 21:19:00,
2013-04-11 16:25:00,35.8,34.5,29.69,NE,38,4.5,10.4,95,0.00,-DZ,,0.21,114.0,WeatherDisplay:10.37,2013-04-11 21:25:00,
2013-04-11 16:30:00,35.8,34.5,29.69,East,95,7.6,15.0,95,0.00,-DZ,,0.21,62.0,WeatherDisplay:10.37,2013-04-11 21:30:00,
2013-04-11 16:35:00,35.6,34.3,29.69,ENE,63,10.5,16.1,95,0.00,-DZ,,0.21,81.0,WeatherDisplay:10.37,2013-04-11 21:35:00,
2013-04-11 16:40:00,35.3,34.0,29.69,East,80,10.1,15.6,95,0.00,-DZ,,0.21,77.0,WeatherDisplay:10.37,2013-04-11 21:40:00,
2013-04-11 16:45:00,35.3,34.0,29.70,East,84,6.7,13.2,95,0.00,-DZ,,0.21,86.0,WeatherDisplay:10.37,2013-04-11 21:45:00,
2013-04-11 16:50:00,35.2,33.9,29.70,ENE,73,8.7,13.2,95,0.00,-DZ,,0.21,70.0,WeatherDisplay:10.37,2013-04-11 21:50:00,
2013-04-11 16:55:00,35.0,33.7,29.70,ENE,78,5.8,7.2,95,0.00,-DZ,,0.21,79.0,WeatherDisplay:10.37,2013-04-11 21:55:00,
2013-04-11 17:00:00,34.9,33.6,29.70,East,79,10.9,17.3,95,0.00,-DZ,,0.21,77.0,WeatherDisplay:10.37,2013-04-11 22:00:00,
2013-04-11 17:05:00,35.0,33.7,29.70,NE,38,5.6,9.6,95,0.00,-DZ,,0.21,60.0,WeatherDisplay:10.37,2013-04-11 22:05:00,
2013-04-11 17:10:00,35.0,33.7,29.70,ENE,71,7.7,8.4,95,0.00,-DZ,,0.21,58.0,WeatherDisplay:10.37,2013-04-11 22:10:00,
2013-04-11 17:15:00,34.9,33.6,29.70,NE,51,4.1,9.6,95,0.00,-DZ,,0.21,54.0,WeatherDisplay:10.37,2013-04-11 22:15:00,
2013-04-11 17:20:00,34.9,33.6,29.70,ENE,64,7.1,13.2,95,0.00,-DZ,,0.21,53.0,WeatherDisplay:10.37,2013-04-11 22:20:00,
2013-04-11 17:25:00,34.7,33.4,29.70,NE,38,6.9,12.0,95,0.00,-RA,,0.21,51.0,WeatherDisplay:10.37,2013-04-11 22:25:00,
2013-04-11 17:30:00,34.7,33.4,29.71,ENE,73,8.3,18.4,95,0.00,-RA,,0.21,49.0,WeatherDisplay:10.37,2013-04-11 22:30:00,
2013-04-11 17:35:00,34.6,33.3,29.71,East,84,10.3,16.1,95,0.00,-RA,,0.21,51.0,WeatherDisplay:10.37,2013-04-11 22:35:00,
2013-04-11 17:40:00,34.7,33.4,29.71,NE,53,4.4,10.4,95,0.00,-RA,,0.21,53.0,WeatherDisplay:10.37,2013-04-11 22:40:00,
2013-04-11 17:45:00,34.7,33.4,29.70,ENE,63,4.2,7.2,95,0.00,-RA,,0.21,39.0,WeatherDisplay:10.37,2013-04-11 22:45:00,
2013-04-11 17:50:00,34.6,33.3,29.70,East,88,6.0,17.3,95,0.00,-RA,,0.21,42.0,WeatherDisplay:10.37,2013-04-11 22:50:00,
2013-04-11 17:55:00,34.6,33.3,29.70,East,93,2.6,13.2,95,0.00,-RA,,0.21,49.0,WeatherDisplay:10.37,2013-04-11 22:55:00,
2013-04-11 18:00:00,34.6,33.3,29.70,East,79,11.2,23.0,95,0.00,-RA,,0.21,47.0,WeatherDisplay:10.37,2013-04-11 23:00:00,
2013-04-11 18:05:00,34.6,33.3,29.70,East,92,3.5,8.4,95,0.00,-RA,,0.21,47.0,WeatherDisplay:10.37,2013-04-11 23:05:00,
2013-04-11 18:10:00,34.6,33.3,29.70,ENE,78,5.7,9.6,95,0.00,-RA,,0.21,53.0,WeatherDisplay:10.37,2013-04-11 23:10:00,
2013-04-11 18:15:00,34.4,33.1,29.67,ENE,60,4.8,9.6,95,0.00,-RA,,0.21,102.0,WeatherDisplay:10.37,2013-04-11 23:15:00,
2013-04-11 18:20:00,34.3,33.0,29.67,NE,38,11.6,12.0,95,0.00,-RA,,0.21,84.0,WeatherDisplay:10.37,2013-04-11 23:20:00,
2013-04-11 18:25:00,34.3,33.0,29.67,NE,54,4.4,10.8,95,0.00,-RA,,0.21,16.0,WeatherDisplay:10.37,2013-04-11 23:25:00,
2013-04-11 18:30:00,34.1,32.8,29.67,East,94,5.8,13.2,95,0.00,-RA,,0.21,12.0,WeatherDisplay:10.37,2013-04-11 23:30:00,
2013-04-11 18:35:00,34.0,32.7,29.67,ENE,57,5.8,15.0,95,0.00,-RA,,0.21,16.0,WeatherDisplay:10.37,2013-04-11 23:35:00,
2013-04-11 18:40:00,34.0,32.7,29.67,East,83,12.0,15.0,95,0.00,-RA,,0.21,14.0,WeatherDisplay:10.37,2013-04-11 23:40:00,
2013-04-11 18:45:00,33.8,32.5,29.65,ENE,76,13.4,23.0,95,0.00,-SN,,0.21,12.0,WeatherDisplay:10.37,2013-04-11 23:45:00,
2013-04-11 18:50:00,33.8,32.5,29.65,NNE,30,12.4,23.0,95,0.00,-SN,,0.21,11.0,WeatherDisplay:10.37,2013-04-11 23:50:00,
2013-04-11 18:55:00,33.8,32.5,29.65,ESE,105,2.3,15.0,95,0.00,-SN,,0.21,5.0,WeatherDisplay:10.37,2013-04-11 23:55:00,
2013-04-11 19:00:00,33.8,32.5,29.66,ENE,67,12.4,15.0,95,0.00,-SN,,0.21,5.0,WeatherDisplay:10.37,2013-04-12 00:00:00,
2013-04-11 19:05:00,33.7,32.4,29.66,East,88,7.8,12.7,95,0.00,-SN,,0.21,0.0,WeatherDisplay:10.37,2013-04-12 00:05:00,
2013-04-11 19:10:00,33.7,32.4,29.66,ENE,62,5.1,8.4,95,0.00,-SN,,0.21,0.0,WeatherDisplay:10.37,2013-04-12 00:10:00,
2013-04-11 19:15:00,33.7,32.4,29.67,ENE,77,5.7,9.6,95,0.00,-SN,,0.21,0.0,WeatherDisplay:10.37,2013-04-12 00:15:00,
2013-04-11 19:20:00,33.7,32.4,29.67,East,86,6.5,9.6,95,0.00,-SN,,0.21,0.0,WeatherDisplay:10.37,2013-04-12 00:20:00,
2013-04-11 19:25:00,33.7,32.4,29.67,ESE,117,5.7,8.4,95,0.00,-SN,,0.21,0.0,WeatherDisplay:10.37,2013-04-12 00:25:00,
2013-04-11 19:30:00,33.7,32.4,29.68,East,85,3.2,9.6,95,0.00,-SN,,0.21,0.0,WeatherDisplay:10.37,2013-04-12 00:30:00,
2013-04-11 19:35:00,33.5,32.2,29.68,ENE,65,8.8,12.0,95,0.00,-SN,,0.21,0.0,WeatherDisplay:10.37,2013-04-12 00:35:00,
2013-04-11 19:40:00,33.5,32.2,29.68,ESE,109,6.6,7.2,95,0.00,-SN,,0.21,0.0,WeatherDisplay:10.37,2013-04-12 00:40:00,
2013-04-11 19:45:00,33.7,32.4,29.68,East,101,3.9,6.0,95,0.00,-SN,,0.21,0.0,WeatherDisplay:10.37,2013-04-12 00:45:00,
2013-04-11 19:50:00,33.5,32.2,29.68,ENE,67,5.8,8.4,95,0.00,-SN,,0.21,0.0,WeatherDisplay:10.37,2013-04-12 00:50:00,
2013-04-11 19:55:00,33.5,32.2,29.68,ENE,59,4.3,9.6,95,0.01,-SN,,0.22,0.0,WeatherDisplay:10.37,2013-04-12 00:55:00,
2013-04-11 20:00:00,33.5,32.2,29.67,East,95,3.8,7.2,95,0.01,-SN,,0.22,0.0,WeatherDisplay:10.37,2013-04-12 01:00:00,
2013-04-11 20:05:00,33.4,32.1,29.67,ENE,74,9.0,13.2,95,0.01,-SN,,0.22,0.0,WeatherDisplay:10.37,2013-04-12 01:05:00,
2013-04-11 20:10:00,33.4,32.1,29.67,NE,51,6.9,8.4,95,0.01,-SN,,0.22,0.0,WeatherDisplay:10.37,2013-04-12 01:10:00,
2013-04-11 20:15:00,33.2,31.9,29.65,East,84,6.0,12.0,95,0.01,-SN,,0.22,0.0,WeatherDisplay:10.37,2013-04-12 01:15:00,
2013-04-11 20:20:00,33.2,32.2,29.65,East,83,6.3,12.7,96,0.02,-SN,,0.23,0.0,WeatherDisplay:10.37,2013-04-12 01:20:00,
2013-04-11 20:25:00,33.2,32.2,29.65,East,89,5.1,9.2,96,0.02,-SN,,0.23,0.0,WeatherDisplay:10.37,2013-04-12 01:25:00,
2013-04-11 20:30:00,33.2,32.2,29.66,ENE,72,4.8,7.2,96,0.02,-SN,,0.23,0.0,WeatherDisplay:10.37,2013-04-12 01:30:00,
2013-04-11 20:35:00,33.2,32.2,29.66,East,101,1.9,6.0,96,0.02,-SN,,0.23,0.0,WeatherDisplay:10.37,2013-04-12 01:35:00,
2013-04-11 20:40:00,33.2,32.2,29.66,ENE,65,2.5,6.9,96,0.02,-SN,,0.23,0.0,WeatherDisplay:10.37,2013-04-12 01:40:00,
2013-04-11 20:45:00,33.2,32.2,29.66,ENE,60,2.8,4.8,96,0.02,OVC,,0.23,0.0,WeatherDisplay:10.37,2013-04-12 01:45:00,
2013-04-11 20:50:00,33.2,32.2,29.66,ENE,63,4.6,6.0,96,0.02,OVC,,0.23,0.0,WeatherDisplay:10.37,2013-04-12 01:50:00,
2013-04-11 20:55:00,33.1,32.1,29.66,East,80,5.4,10.4,96,0.01,OVC,,0.23,0.0,WeatherDisplay:10.37,2013-04-12 01:55:00,
2013-04-11 21:00:00,33.1,32.1,29.67,ENE,57,1.5,6.0,96,0.01,OVC,,0.23,0.0,WeatherDisplay:10.37,2013-04-12 02:00:00,
2013-04-11 21:05:00,33.1,32.1,29.67,NE,55,4.8,8.4,96,0.01,OVC,,0.23,0.0,WeatherDisplay:10.37,2013-04-12 02:05:00,
2013-04-11 21:10:00,33.1,32.1,29.67,NE,55,5.2,12.0,96,0.01,OVC,,0.23,0.0,WeatherDisplay:10.37,2013-04-12 02:10:00,
2013-04-11 21:15:00,33.1,32.1,29.66,ENE,62,3.2,6.9,96,0.01,OVC,,0.23,0.0,WeatherDisplay:10.37,2013-04-12 02:15:00,
2013-04-11 21:20:00,33.1,32.1,29.66,NE,54,4.6,6.9,96,0.00,OVC,,0.23,0.0,WeatherDisplay:10.37,2013-04-12 02:20:00,
2013-04-11 21:25:00,32.9,31.9,29.66,ENE,57,4.1,6.0,96,0.00,-SN,,0.23,0.0,WeatherDisplay:10.37,2013-04-12 02:25:00,
2013-04-11 21:30:00,32.9,31.9,29.66,ENE,58,4.3,7.2,96,0.00,-SN,,0.23,0.0,WeatherDisplay:10.37,2013-04-12 02:30:00,
2013-04-11 21:35:00,32.9,31.9,29.66,NNE,15,4.7,7.2,96,0.00,-SN,,0.23,0.0,WeatherDisplay:10.37,2013-04-12 02:35:00,
2013-04-11 21:40:00,32.9,31.9,29.66,ENE,67,5.0,8.4,96,0.00,-SN,,0.23,0.0,WeatherDisplay:10.37,2013-04-12 02:40:00,
2013-04-11 21:45:00,32.9,31.9,29.65,NE,55,2.3,6.9,96,0.00,-SN,,0.23,0.0,WeatherDisplay:10.37,2013-04-12 02:45:00,
2013-04-11 21:50:00,32.8,31.8,29.65,NE,38,0.2,3.6,96,0.00,-SN,,0.23,0.0,WeatherDisplay:10.37,2013-04-12 02:50:00,
2013-04-11 21:55:00,32.8,31.8,29.65,NE,40,5.3,9.6,96,0.00,-SN,,0.23,0.0,WeatherDisplay:10.37,2013-04-12 02:55:00,
2013-04-11 22:00:00,32.8,31.8,29.65,NE,53,3.7,6.0,96,0.00,-SN,,0.23,0.0,WeatherDisplay:10.37,2013-04-12 03:00:00,
2013-04-11 22:05:00,32.7,31.7,29.65,NE,45,5.5,7.2,96,0.00,-SN,,0.23,0.0,WeatherDisplay:10.37,2013-04-12 03:05:00,
2013-04-11 22:10:00,32.7,31.7,29.65,NE,40,0.0,4.6,96,0.00,-SN,,0.23,0.0,WeatherDisplay:10.37,2013-04-12 03:10:00,
2013-04-11 22:15:00,32.7,31.7,29.65,ENE,63,2.9,4.6,96,0.00,-SN,,0.23,0.0,WeatherDisplay:10.37,2013-04-12 03:15:00,
2013-04-11 22:20:00,32.7,31.9,29.65,ENE,61,3.2,6.0,97,0.00,-SN,,0.23,0.0,WeatherDisplay:10.37,2013-04-12 03:20:00,
2013-04-11 22:25:00,32.7,31.9,29.65,ESE,111,3.9,6.0,97,0.00,-SN,,0.23,0.0,WeatherDisplay:10.37,2013-04-12 03:25:00,
2013-04-11 22:30:00,32.7,31.9,29.65,NE,56,3.6,7.2,97,0.00,-SN,,0.23,0.0,WeatherDisplay:10.37,2013-04-12 03:30:00,
2013-04-11 22:35:00,32.7,31.9,29.65,ENE,59,2.7,5.8,97,0.00,-SN,,0.23,0.0,WeatherDisplay:10.37,2013-04-12 03:35:00,
2013-04-11 22:40:00,32.7,31.9,29.65,ENE,64,4.5,9.2,97,0.00,-SN,,0.23,0.0,WeatherDisplay:10.37,2013-04-12 03:40:00,
2013-04-11 22:45:00,32.7,31.9,29.65,ENE,66,3.0,6.0,97,0.00,-SN,,0.23,0.0,WeatherDisplay:10.37,2013-04-12 03:45:00,
2013-04-11 22:50:00,32.7,31.9,29.65,NE,55,2.5,4.8,97,0.00,-SN,,0.23,0.0,WeatherDisplay:10.37,2013-04-12 03:50:00,
2013-04-11 22:55:00,32.5,31.7,29.65,NE,52,2.7,3.6,97,0.00,-SN,,0.23,0.0,WeatherDisplay:10.37,2013-04-12 03:55:00,
2013-04-11 23:00:00,32.5,31.7,29.65,NE,47,5.1,8.4,97,0.00,-SN,,0.23,0.0,WeatherDisplay:10.37,2013-04-12 04:00:00,
2013-04-11 23:05:00,32.5,31.7,29.65,East,86,4.7,6.0,97,0.00,-SN,,0.23,0.0,WeatherDisplay:10.37,2013-04-12 04:05:00,
2013-04-11 23:10:00,32.5,31.7,29.65,NE,51,4.4,7.2,97,0.00,-SN,,0.23,0.0,WeatherDisplay:10.37,2013-04-12 04:10:00,
2013-04-11 23:15:00,32.4,31.6,29.64,ENE,57,3.4,4.8,97,0.00,-SN,,0.23,0.0,WeatherDisplay:10.37,2013-04-12 04:15:00,
2013-04-11 23:20:00,32.4,31.6,29.64,NE,51,4.9,7.2,97,0.00,-SN,,0.23,0.0,WeatherDisplay:10.37,2013-04-12 04:20:00,
2013-04-11 23:25:00,32.4,31.6,29.64,East,92,0.0,0.0,97,0.00,-SN,,0.23,0.0,WeatherDisplay:10.37,2013-04-12 04:25:00,
2013-04-11 23:30:00,32.4,31.6,29.65,NE,53,1.6,3.6,97,0.00,-SN,,0.23,0.0,WeatherDisplay:10.37,2013-04-12 04:30:00,
2013-04-11 23:35:00,32.4,31.6,29.65,ENE,78,1.3,2.4,97,0.00,-SN,,0.23,0.0,WeatherDisplay:10.37,2013-04-12 04:35:00,
2013-04-11 23:40:00,32.4,31.6,29.65,ENE,70,4.0,4.8,97,0.00,-SN,,0.23,0.0,WeatherDisplay:10.37,2013-04-12 04:40:00,
2013-04-11 23:45:00,32.4,31.6,29.64,NNE,30,2.1,3.6,97,0.00,-SN,,0.23,0.0,WeatherDisplay:10.37,2013-04-12 04:45:00,
2013-04-11 23:50:00,32.4,31.6,29.64,NE,46,1.2,3.5,97,0.00,-SN,,0.23,0.0,WeatherDisplay:10.37,2013-04-12 04:50:00,
2013-04-11 23:55:00,32.4,31.6,29.64,ENE,59,2.9,7.2,97,0.00,-SN,,0.23,0.0,WeatherDisplay:10.37,2013-04-12 04:55:00,